Location: Chatou
(48.8898°N, 2.1586°E)
Time: 01:37:47
(UTC+00:00)

STRAND 1 - Pass Details

Date: 10 December 2023
Orbit: 766 x 778 km, 98.4° (Epoch: 03 March)

Event Time Altitude Azimuth Distance (km) Brightness Sun altitude
Exits shadow 18:29:21 65° 113° (ESE) 843 ? -24.3°
Drops below altitude 10° 18:34:15 10° 185° (S) 2,305 ? -25.1°
Sets 18:36:34 0° 188° (S) 3,229 ? -25.5°
